Year,Month,Day,Hour,Minute,Value (Times are PST for temperature in C)
2014,03,24,00,00,6.30
2014,03,24,00,01,6.30
2014,03,24,00,02,6.30
2014,03,24,00,03,6.30
2014,03,24,00,04,6.30
2014,03,24,00,05,6.30
2014,03,24,00,06,6.30
2014,03,24,00,07,6.30
2014,03,24,00,08,6.30
2014,03,24,00,09,6.30
2014,03,24,00,10,6.30
2014,03,24,00,11,6.30
2014,03,24,00,12,6.30
2014,03,24,00,13,6.30
2014,03,24,00,14,6.30
2014,03,24,00,15,6.30
2014,03,24,00,16,6.30
2014,03,24,00,17,6.30
2014,03,24,00,18,6.30
2014,03,24,00,19,6.30
2014,03,24,00,20,6.30
2014,03,24,00,21,6.30
2014,03,24,00,22,6.30
2014,03,24,00,23,6.30
2014,03,24,00,24,6.30
2014,03,24,00,25,6.30
2014,03,24,00,26,6.30
2014,03,24,00,27,6.30
2014,03,24,00,28,6.30
2014,03,24,00,29,6.30
2014,03,24,00,30,6.30
2014,03,24,00,31,6.30
2014,03,24,00,32,6.30
2014,03,24,00,33,6.30
2014,03,24,00,34,6.30
2014,03,24,00,35,6.30
2014,03,24,00,36,6.30
2014,03,24,00,37,6.30
2014,03,24,00,38,6.30
2014,03,24,00,39,6.30
2014,03,24,00,40,6.30
2014,03,24,00,41,6.30
2014,03,24,00,42,6.30
2014,03,24,00,43,6.30
2014,03,24,00,44,6.30
2014,03,24,00,45,6.30
2014,03,24,00,46,6.30
2014,03,24,00,47,6.30
2014,03,24,00,48,6.20
2014,03,24,00,49,6.20
2014,03,24,00,50,6.20
2014,03,24,00,51,6.20
2014,03,24,00,52,6.20
2014,03,24,00,53,6.20
2014,03,24,00,54,6.20
2014,03,24,00,55,6.20
2014,03,24,00,56,6.20
2014,03,24,00,57,6.20
2014,03,24,00,58,6.20
2014,03,24,00,59,6.20
2014,03,24,01,00,6.20
2014,03,24,01,01,6.20
2014,03,24,01,02,6.20
2014,03,24,01,03,6.20
2014,03,24,01,04,6.20
2014,03,24,01,05,6.10
2014,03,24,01,06,6.10
2014,03,24,01,07,6.10
2014,03,24,01,08,6.10
2014,03,24,01,09,6.10
2014,03,24,01,10,6.10
2014,03,24,01,11,6.10
2014,03,24,01,12,6.10
2014,03,24,01,13,6.10
2014,03,24,01,14,6.10
2014,03,24,01,15,6.10
2014,03,24,01,16,6.10
2014,03,24,01,17,6.10
2014,03,24,01,18,6.10
2014,03,24,01,19,6.10
2014,03,24,01,20,6.10
2014,03,24,01,21,6.20
2014,03,24,01,22,6.20
2014,03,24,01,23,6.20
2014,03,24,01,24,6.20
2014,03,24,01,25,6.20
2014,03,24,01,26,6.20
2014,03,24,01,27,6.20
2014,03,24,01,28,6.20
2014,03,24,01,29,6.20
2014,03,24,01,30,6.20
2014,03,24,01,31,6.20
2014,03,24,01,32,6.20
2014,03,24,01,33,6.20
2014,03,24,01,34,6.20
2014,03,24,01,35,6.20
2014,03,24,01,36,6.20
2014,03,24,01,37,6.20
2014,03,24,01,38,6.20
2014,03,24,01,39,6.20
2014,03,24,01,40,6.20
2014,03,24,01,41,6.20
2014,03,24,01,42,6.20
2014,03,24,01,43,6.20
2014,03,24,01,44,6.20
2014,03,24,01,45,6.20
2014,03,24,01,46,6.20
2014,03,24,01,47,6.20
2014,03,24,01,48,6.20
2014,03,24,01,49,6.20
2014,03,24,01,50,6.20
2014,03,24,01,51,6.20
2014,03,24,01,52,6.20
2014,03,24,01,53,6.20
2014,03,24,01,54,6.20
2014,03,24,01,55,6.20
2014,03,24,01,56,6.20
2014,03,24,01,57,6.20
2014,03,24,01,58,6.20
2014,03,24,01,59,6.20
2014,03,24,02,00,6.20
2014,03,24,02,01,6.20
2014,03,24,02,02,6.10
2014,03,24,02,03,6.10
2014,03,24,02,04,6.10
2014,03,24,02,05,6.10
2014,03,24,02,06,6.10
2014,03,24,02,07,6.10
2014,03,24,02,08,6.10
2014,03,24,02,09,6.10
2014,03,24,02,10,6.10
2014,03,24,02,11,6.10
2014,03,24,02,12,6.10
2014,03,24,02,13,6.10
2014,03,24,02,14,6.10
2014,03,24,02,15,6.10
2014,03,24,02,16,6.10
2014,03,24,02,17,6.10
2014,03,24,02,18,6.10
2014,03,24,02,19,6.10
2014,03,24,02,20,6.10
2014,03,24,02,21,6.10
2014,03,24,02,22,6.10
2014,03,24,02,23,6.10
2014,03,24,02,24,6.10
2014,03,24,02,25,6.10
2014,03,24,02,26,6.10
2014,03,24,02,27,6.10
2014,03,24,02,28,6.10
2014,03,24,02,29,6.10
2014,03,24,02,30,6.10
2014,03,24,02,31,6.10
2014,03,24,02,32,6.10
2014,03,24,02,33,6.10
2014,03,24,02,34,6.10
2014,03,24,02,35,6.10
2014,03,24,02,36,6.10
2014,03,24,02,37,6.10
2014,03,24,02,38,6.10
2014,03,24,02,39,6.10
2014,03,24,02,40,6.10
2014,03,24,02,41,6.10
2014,03,24,02,42,6.20
2014,03,24,02,43,6.20
2014,03,24,02,44,6.20
2014,03,24,02,45,6.20
2014,03,24,02,46,6.20
2014,03,24,02,47,6.20
2014,03,24,02,48,6.20
2014,03,24,02,49,6.20
2014,03,24,02,50,6.20
2014,03,24,02,51,6.20
2014,03,24,02,52,6.20
2014,03,24,02,53,6.20
2014,03,24,02,54,6.20
2014,03,24,02,55,6.20
2014,03,24,02,56,6.20
2014,03,24,02,57,6.20
2014,03,24,02,58,6.20
2014,03,24,02,59,6.20
2014,03,24,03,00,6.20
2014,03,24,03,01,6.20
2014,03,24,03,02,6.20
2014,03,24,03,03,6.20
2014,03,24,03,04,6.20
2014,03,24,03,05,6.30
2014,03,24,03,06,6.30
2014,03,24,03,07,6.30
2014,03,24,03,08,6.30
2014,03,24,03,09,6.30
2014,03,24,03,10,6.30
2014,03,24,03,11,6.30
2014,03,24,03,12,6.30
2014,03,24,03,13,6.30
2014,03,24,03,14,6.30
2014,03,24,03,15,6.30
2014,03,24,03,16,6.30
2014,03,24,03,17,6.30
2014,03,24,03,18,6.30
2014,03,24,03,19,6.30
2014,03,24,03,20,6.30
2014,03,24,03,21,6.30
2014,03,24,03,22,6.30
2014,03,24,03,23,6.30
2014,03,24,03,24,6.30
2014,03,24,03,25,6.30
2014,03,24,03,26,6.30
2014,03,24,03,27,6.30
2014,03,24,03,28,6.30
2014,03,24,03,29,6.30
2014,03,24,03,30,6.30
2014,03,24,03,31,6.30
2014,03,24,03,32,6.30
2014,03,24,03,33,6.30
2014,03,24,03,34,6.30
2014,03,24,03,35,6.30
2014,03,24,03,36,6.30
2014,03,24,03,37,6.30
2014,03,24,03,38,6.30
2014,03,24,03,39,6.30
2014,03,24,03,40,6.30
2014,03,24,03,41,6.40
2014,03,24,03,42,6.40
2014,03,24,03,43,6.40
2014,03,24,03,44,6.40
2014,03,24,03,45,6.40
2014,03,24,03,46,6.40
2014,03,24,03,47,6.40
2014,03,24,03,48,6.40
2014,03,24,03,49,6.40
2014,03,24,03,50,6.40
2014,03,24,03,51,6.40
2014,03,24,03,52,6.40
2014,03,24,03,53,6.40
2014,03,24,03,54,6.40
2014,03,24,03,55,6.40
2014,03,24,03,56,6.40
2014,03,24,03,57,6.40
2014,03,24,03,58,6.40
2014,03,24,03,59,6.40
2014,03,24,04,00,6.40
2014,03,24,04,01,6.40
2014,03,24,04,02,6.40
2014,03,24,04,03,6.40
2014,03,24,04,04,6.40
2014,03,24,04,05,6.40
2014,03,24,04,06,6.40
2014,03,24,04,07,6.40
2014,03,24,04,08,6.40
2014,03,24,04,09,6.40
2014,03,24,04,10,6.40
2014,03,24,04,11,6.40
2014,03,24,04,12,6.40
2014,03,24,04,13,6.40
2014,03,24,04,14,6.40
2014,03,24,04,15,6.40
2014,03,24,04,16,6.40
2014,03,24,04,17,6.40
2014,03,24,04,18,6.40
2014,03,24,04,19,6.40
2014,03,24,04,20,6.40
2014,03,24,04,21,6.40
2014,03,24,04,22,6.40
2014,03,24,04,23,6.40
2014,03,24,04,24,6.40
2014,03,24,04,25,6.40
2014,03,24,04,26,6.40
2014,03,24,04,27,6.40
2014,03,24,04,28,6.40
2014,03,24,04,29,6.40
2014,03,24,04,30,6.40
2014,03,24,04,31,6.40
2014,03,24,04,32,6.40
2014,03,24,04,33,6.40
2014,03,24,04,34,6.40
2014,03,24,04,35,6.40
2014,03,24,04,36,6.40
2014,03,24,04,37,6.40
2014,03,24,04,38,6.40
2014,03,24,04,39,6.40
2014,03,24,04,40,6.40
2014,03,24,04,41,6.40
2014,03,24,04,42,6.40
2014,03,24,04,43,6.40
2014,03,24,04,44,6.40
2014,03,24,04,45,6.40
2014,03,24,04,46,6.40
2014,03,24,04,47,6.40
2014,03,24,04,48,6.40
2014,03,24,04,49,6.40
2014,03,24,04,50,6.40
2014,03,24,04,51,6.40
2014,03,24,04,52,6.40
2014,03,24,04,53,6.40
2014,03,24,04,54,6.40
2014,03,24,04,55,6.30
2014,03,24,04,56,6.30
2014,03,24,04,57,6.30
2014,03,24,04,58,6.30
2014,03,24,04,59,6.30
2014,03,24,05,00,6.30
2014,03,24,05,01,6.30
2014,03,24,05,02,6.30
2014,03,24,05,03,6.40
2014,03,24,05,04,6.30
2014,03,24,05,05,6.30
2014,03,24,05,06,6.30
2014,03,24,05,07,6.30
2014,03,24,05,08,6.40
2014,03,24,05,09,6.40
2014,03,24,05,10,6.40
2014,03,24,05,11,6.30
2014,03,24,05,12,6.30
2014,03,24,05,13,6.30
2014,03,24,05,14,6.30
2014,03,24,05,15,6.30
2014,03,24,05,16,6.30
2014,03,24,05,17,6.30
2014,03,24,05,18,6.30
2014,03,24,05,19,6.30
2014,03,24,05,20,6.30
2014,03,24,05,21,6.30
2014,03,24,05,22,6.30
2014,03,24,05,23,6.30
2014,03,24,05,24,6.30
2014,03,24,05,25,6.30
2014,03,24,05,26,6.30
2014,03,24,05,27,6.30
2014,03,24,05,28,6.30
2014,03,24,05,29,6.30
2014,03,24,05,30,6.30
2014,03,24,05,31,6.40
2014,03,24,05,32,6.40
2014,03,24,05,33,6.40
2014,03,24,05,34,6.40
2014,03,24,05,35,6.40
2014,03,24,05,36,6.40
2014,03,24,05,37,6.40
2014,03,24,05,38,6.40
2014,03,24,05,39,6.40
2014,03,24,05,40,6.40
2014,03,24,05,41,6.40
2014,03,24,05,42,6.40
2014,03,24,05,43,6.40
2014,03,24,05,44,6.40
2014,03,24,05,45,6.40
2014,03,24,05,46,6.40
2014,03,24,05,47,6.40
2014,03,24,05,48,6.40
2014,03,24,05,49,6.40
2014,03,24,05,50,6.40
2014,03,24,05,51,6.40
2014,03,24,05,52,6.40
2014,03,24,05,53,6.40
2014,03,24,05,54,6.40
2014,03,24,05,55,6.40
2014,03,24,05,56,6.40
2014,03,24,05,57,6.40
2014,03,24,05,58,6.40
2014,03,24,05,59,6.40
2014,03,24,06,00,6.40
2014,03,24,06,01,6.40
2014,03,24,06,02,6.40
2014,03,24,06,03,6.40
2014,03,24,06,04,6.40
2014,03,24,06,05,6.40
2014,03,24,06,06,6.40
2014,03,24,06,07,6.40
2014,03,24,06,08,6.40
2014,03,24,06,09,6.40
2014,03,24,06,10,6.40
2014,03,24,06,11,6.40
2014,03,24,06,12,6.40
2014,03,24,06,13,6.40
2014,03,24,06,14,6.40
2014,03,24,06,15,6.40
2014,03,24,06,16,6.40
2014,03,24,06,17,6.40
2014,03,24,06,18,6.40
2014,03,24,06,19,6.40
2014,03,24,06,20,6.40
2014,03,24,06,21,6.40
2014,03,24,06,22,6.40
2014,03,24,06,23,6.40
2014,03,24,06,24,6.40
2014,03,24,06,25,6.40
2014,03,24,06,26,6.40
2014,03,24,06,27,6.40
2014,03,24,06,28,6.40
2014,03,24,06,29,6.40
2014,03,24,06,30,6.40
2014,03,24,06,31,6.40
2014,03,24,06,32,6.40
2014,03,24,06,33,6.40
2014,03,24,06,34,6.40
2014,03,24,06,35,6.30
2014,03,24,06,36,6.30
2014,03,24,06,37,6.30
2014,03,24,06,38,6.30
2014,03,24,06,39,6.30
2014,03,24,06,40,6.30
2014,03,24,06,41,6.30
2014,03,24,06,42,6.30
2014,03,24,06,43,6.20
2014,03,24,06,44,6.20
2014,03,24,06,45,6.20
2014,03,24,06,46,6.20
2014,03,24,06,47,6.20
2014,03,24,06,48,6.20
2014,03,24,06,49,6.20
2014,03,24,06,50,6.20
2014,03,24,06,51,6.20
2014,03,24,06,52,6.20
2014,03,24,06,53,6.10
2014,03,24,06,54,6.10
2014,03,24,06,55,6.10
2014,03,24,06,56,6.10
2014,03,24,06,57,6.10
2014,03,24,06,58,6.10
2014,03,24,06,59,6.10
2014,03,24,07,00,6.10
2014,03,24,07,01,6.10
2014,03,24,07,02,6.10
2014,03,24,07,03,6.10
2014,03,24,07,04,6.10
2014,03,24,07,05,6.10
2014,03,24,07,06,6.10
2014,03,24,07,07,6.00
2014,03,24,07,08,6.00
2014,03,24,07,09,6.00
2014,03,24,07,10,6.00
2014,03,24,07,11,6.00
2014,03,24,07,12,6.00
2014,03,24,07,13,6.00
2014,03,24,07,14,5.90
2014,03,24,07,15,5.90
2014,03,24,07,16,5.90
2014,03,24,07,17,5.90
2014,03,24,07,18,5.90
2014,03,24,07,19,5.90
2014,03,24,07,20,5.90
2014,03,24,07,21,5.90
2014,03,24,07,22,5.90
2014,03,24,07,23,5.90
2014,03,24,07,24,5.90
2014,03,24,07,25,5.90
2014,03,24,07,26,5.90
2014,03,24,07,27,5.90
2014,03,24,07,28,5.90
2014,03,24,07,29,5.90
2014,03,24,07,30,5.90
2014,03,24,07,31,5.90
2014,03,24,07,32,5.90
2014,03,24,07,33,5.90
2014,03,24,07,34,5.90
2014,03,24,07,35,5.90
2014,03,24,07,36,5.90
2014,03,24,07,37,5.90
2014,03,24,07,38,5.90
2014,03,24,07,39,5.90
2014,03,24,07,40,5.90
2014,03,24,07,41,5.90
2014,03,24,07,42,5.90
2014,03,24,07,43,5.90
2014,03,24,07,44,5.90
2014,03,24,07,45,5.90
2014,03,24,07,46,5.90
2014,03,24,07,47,5.90
2014,03,24,07,48,6.00
2014,03,24,07,49,6.00
2014,03,24,07,50,6.00
2014,03,24,07,51,6.00
2014,03,24,07,52,6.00
2014,03,24,07,53,6.00
2014,03,24,07,54,6.10
2014,03,24,07,55,6.10
2014,03,24,07,56,6.10
2014,03,24,07,57,6.10
2014,03,24,07,58,6.10
2014,03,24,07,59,6.10
2014,03,24,08,00,6.10
2014,03,24,08,01,6.10
2014,03,24,08,02,6.10
2014,03,24,08,03,6.20
2014,03,24,08,04,6.20
2014,03,24,08,05,6.20
2014,03,24,08,06,6.20
2014,03,24,08,07,6.20
2014,03,24,08,08,6.20
2014,03,24,08,09,6.20
2014,03,24,08,10,6.20
2014,03,24,08,11,6.10
2014,03,24,08,12,6.20
2014,03,24,08,13,6.10
2014,03,24,08,14,6.10
2014,03,24,08,15,6.20
2014,03,24,08,16,6.10
2014,03,24,08,17,6.20
2014,03,24,08,18,6.20
2014,03,24,08,19,6.10
2014,03,24,08,20,6.20
2014,03,24,08,21,6.20
2014,03,24,08,22,6.20
2014,03,24,08,23,6.20
2014,03,24,08,24,6.20
2014,03,24,08,25,6.20
2014,03,24,08,26,6.20
2014,03,24,08,27,6.20
2014,03,24,08,28,6.20
2014,03,24,08,29,6.20
2014,03,24,08,30,6.20
2014,03,24,08,31,6.20
2014,03,24,08,32,6.30
2014,03,24,08,33,6.30
2014,03,24,08,34,6.30
2014,03,24,08,35,6.30
2014,03,24,08,36,6.30
2014,03,24,08,37,6.40
2014,03,24,08,38,6.40
2014,03,24,08,39,6.40
2014,03,24,08,40,6.50
2014,03,24,08,41,6.50
2014,03,24,08,42,6.60
2014,03,24,08,43,6.60
2014,03,24,08,44,6.70
2014,03,24,08,45,6.70
2014,03,24,08,46,6.70
2014,03,24,08,47,6.70
2014,03,24,08,48,6.80
2014,03,24,08,49,6.80
2014,03,24,08,50,6.80
2014,03,24,08,51,6.80
2014,03,24,08,52,6.80
2014,03,24,08,53,6.80
2014,03,24,08,54,6.80
2014,03,24,08,55,6.80
2014,03,24,08,56,6.80
2014,03,24,08,57,6.80
2014,03,24,08,58,6.80
2014,03,24,08,59,6.80
2014,03,24,09,00,6.90
2014,03,24,09,01,6.90
2014,03,24,09,02,6.90
2014,03,24,09,03,7.00
2014,03,24,09,04,7.00
2014,03,24,09,05,7.10
2014,03,24,09,06,7.10
2014,03,24,09,07,7.20
2014,03,24,09,08,7.20
2014,03,24,09,09,7.20
2014,03,24,09,10,7.30
2014,03,24,09,11,7.30
2014,03,24,09,12,7.30
2014,03,24,09,13,7.30
2014,03,24,09,14,7.30
2014,03,24,09,15,7.30
2014,03,24,09,16,7.30
2014,03,24,09,17,7.30
2014,03,24,09,18,7.30
2014,03,24,09,19,7.30
2014,03,24,09,20,7.30
2014,03,24,09,21,7.30
2014,03,24,09,22,7.30
2014,03,24,09,23,7.30
2014,03,24,09,24,7.30
2014,03,24,09,25,7.30
2014,03,24,09,26,7.30
2014,03,24,09,27,7.40
2014,03,24,09,28,7.40
2014,03,24,09,29,7.40
2014,03,24,09,30,7.50
2014,03,24,09,31,7.50
2014,03,24,09,32,7.60
2014,03,24,09,33,7.60
2014,03,24,09,34,7.70
2014,03,24,09,35,7.70
2014,03,24,09,36,7.70
2014,03,24,09,37,7.80
2014,03,24,09,38,7.80
2014,03,24,09,39,7.80
2014,03,24,09,40,7.90
2014,03,24,09,41,7.90
2014,03,24,09,42,7.90
2014,03,24,09,43,7.90
2014,03,24,09,44,8.00
2014,03,24,09,45,8.00
2014,03,24,09,46,8.00
2014,03,24,09,47,8.10
2014,03,24,09,48,8.10
2014,03,24,09,49,8.10
2014,03,24,09,50,8.20
2014,03,24,09,51,8.20
2014,03,24,09,52,8.20
2014,03,24,09,53,8.20
2014,03,24,09,54,8.20
2014,03,24,09,55,8.30
2014,03,24,09,56,8.30
2014,03,24,09,57,8.30
2014,03,24,09,58,8.30
2014,03,24,09,59,8.30
2014,03,24,10,00,8.30
2014,03,24,10,01,8.30
2014,03,24,10,02,8.30
2014,03,24,10,03,8.30
2014,03,24,10,04,8.30
2014,03,24,10,05,8.30
2014,03,24,10,06,8.30
2014,03,24,10,07,8.40
2014,03,24,10,08,8.40
2014,03,24,10,09,8.50
2014,03,24,10,10,8.50
2014,03,24,10,11,8.50
2014,03,24,10,12,8.50
2014,03,24,10,13,8.60
2014,03,24,10,14,8.60
2014,03,24,10,15,8.60
2014,03,24,10,16,8.60
2014,03,24,10,17,8.60
2014,03,24,10,18,8.50
2014,03,24,10,19,8.40
2014,03,24,10,20,8.40
2014,03,24,10,21,8.40
2014,03,24,10,22,8.50
2014,03,24,10,23,8.50
2014,03,24,10,24,8.50
2014,03,24,10,25,8.60
2014,03,24,10,26,8.60
2014,03,24,10,27,8.60
2014,03,24,10,28,8.60
2014,03,24,10,29,8.70
2014,03,24,10,30,8.70
2014,03,24,10,31,8.70
2014,03,24,10,32,8.80
2014,03,24,10,33,8.80
2014,03,24,10,34,8.90
2014,03,24,10,35,8.90
2014,03,24,10,36,9.00
2014,03,24,10,37,9.00
2014,03,24,10,38,9.00
2014,03,24,10,39,8.90
2014,03,24,10,40,9.00
2014,03,24,10,41,9.00
2014,03,24,10,42,9.10
2014,03,24,10,43,9.10
2014,03,24,10,44,9.20
2014,03,24,10,45,9.30
2014,03,24,10,46,9.30
2014,03,24,10,47,9.30
2014,03,24,10,48,9.30
2014,03,24,10,49,9.20
2014,03,24,10,50,9.10
2014,03,24,10,51,9.10
2014,03,24,10,52,9.10
2014,03,24,10,53,9.10
2014,03,24,10,54,9.20
2014,03,24,10,55,9.20
2014,03,24,10,56,9.20
2014,03,24,10,57,9.30
2014,03,24,10,58,9.30
2014,03,24,10,59,9.30
2014,03,24,11,00,9.20
2014,03,24,11,01,9.10
2014,03,24,11,02,9.00
2014,03,24,11,03,9.00
2014,03,24,11,04,9.00
2014,03,24,11,05,8.90
2014,03,24,11,06,8.90
2014,03,24,11,07,8.90
2014,03,24,11,08,9.00
2014,03,24,11,09,9.00
2014,03,24,11,10,9.10
2014,03,24,11,11,9.10
2014,03,24,11,12,9.20
2014,03,24,11,13,9.20
2014,03,24,11,14,9.30
2014,03,24,11,15,9.40
2014,03,24,11,16,9.40
2014,03,24,11,17,9.50
2014,03,24,11,18,9.50
2014,03,24,11,19,9.40
2014,03,24,11,20,9.30
2014,03,24,11,21,9.30
2014,03,24,11,22,9.30
2014,03,24,11,23,9.30
2014,03,24,11,24,9.30
2014,03,24,11,25,9.30
2014,03,24,11,26,9.40
2014,03,24,11,27,9.40
2014,03,24,11,28,9.30
2014,03,24,11,29,9.30
2014,03,24,11,30,9.20
2014,03,24,11,31,9.20
2014,03,24,11,32,9.20
2014,03,24,11,33,9.20
2014,03,24,11,34,9.20
2014,03,24,11,35,9.20
2014,03,24,11,36,9.20
2014,03,24,11,37,9.30
2014,03,24,11,38,9.30
2014,03,24,11,39,9.30
2014,03,24,11,40,9.40
2014,03,24,11,41,9.40
2014,03,24,11,42,9.50
2014,03,24,11,43,9.50
2014,03,24,11,44,9.60
2014,03,24,11,45,9.70
2014,03,24,11,46,9.80
2014,03,24,11,47,9.80
2014,03,24,11,48,9.80
2014,03,24,11,49,9.80
2014,03,24,11,50,9.80
2014,03,24,11,51,9.80
2014,03,24,11,52,9.80
2014,03,24,11,53,9.80
2014,03,24,11,54,9.80
2014,03,24,11,55,9.80
2014,03,24,11,56,9.80
2014,03,24,11,57,9.80
2014,03,24,11,58,9.80
2014,03,24,11,59,9.80
2014,03,24,12,00,9.90
2014,03,24,12,01,9.90
2014,03,24,12,02,9.90
2014,03,24,12,03,10.00
2014,03,24,12,04,10.10
2014,03,24,12,05,10.10
2014,03,24,12,06,10.20
2014,03,24,12,07,10.20
2014,03,24,12,08,10.20
2014,03,24,12,09,10.20
2014,03,24,12,10,10.30
2014,03,24,12,11,10.40
2014,03,24,12,12,10.50
2014,03,24,12,13,10.50
2014,03,24,12,14,10.40
2014,03,24,12,15,10.40
2014,03,24,12,16,10.30
2014,03,24,12,17,10.30
2014,03,24,12,18,10.30
2014,03,24,12,19,10.30
2014,03,24,12,20,10.30
2014,03,24,12,21,10.30
2014,03,24,12,22,10.30
2014,03,24,12,23,10.30
2014,03,24,12,24,10.20
2014,03,24,12,25,10.20
2014,03,24,12,26,10.20
2014,03,24,12,27,10.30
2014,03,24,12,28,10.30
2014,03,24,12,29,10.40
2014,03,24,12,30,10.50
2014,03,24,12,31,10.50
2014,03,24,12,32,10.60
2014,03,24,12,33,10.60
2014,03,24,12,34,10.60
2014,03,24,12,35,10.60
2014,03,24,12,36,10.60
2014,03,24,12,37,10.60
2014,03,24,12,38,10.70
2014,03,24,12,39,10.70
2014,03,24,12,40,10.70
2014,03,24,12,41,10.70
2014,03,24,12,42,10.70
2014,03,24,12,43,10.70
2014,03,24,12,44,10.70
2014,03,24,12,45,10.60
2014,03,24,12,46,10.60
2014,03,24,12,47,10.60
2014,03,24,12,48,10.60
2014,03,24,12,49,10.60
2014,03,24,12,50,10.70
2014,03,24,12,51,10.80
2014,03,24,12,52,10.80
2014,03,24,12,53,10.90
2014,03,24,12,54,11.00
2014,03,24,12,55,11.10
2014,03,24,12,56,11.20
2014,03,24,12,57,11.20
2014,03,24,12,58,11.30
2014,03,24,12,59,11.30
2014,03,24,13,00,11.30
2014,03,24,13,01,11.30
2014,03,24,13,02,11.30
2014,03,24,13,03,11.30
2014,03,24,13,04,11.30
2014,03,24,13,05,11.30
2014,03,24,13,06,11.30
2014,03,24,13,07,11.20
2014,03,24,13,08,11.30
2014,03,24,13,09,11.30
2014,03,24,13,10,11.30
2014,03,24,13,11,11.30
2014,03,24,13,12,11.30
2014,03,24,13,13,11.30
2014,03,24,13,14,11.30
2014,03,24,13,15,11.40
2014,03,24,13,16,11.40
2014,03,24,13,17,11.40
2014,03,24,13,18,11.40
2014,03,24,13,19,11.40
2014,03,24,13,20,11.50
2014,03,24,13,21,11.50
2014,03,24,13,22,11.60
2014,03,24,13,23,11.60
2014,03,24,13,24,11.60
2014,03,24,13,25,11.60
2014,03,24,13,26,11.60
2014,03,24,13,27,11.60
2014,03,24,13,28,11.70
2014,03,24,13,29,11.70
2014,03,24,13,30,11.70
2014,03,24,13,31,11.60
2014,03,24,13,32,11.60
2014,03,24,13,33,11.60
2014,03,24,13,34,11.60
2014,03,24,13,35,11.50
2014,03,24,13,36,11.50
2014,03,24,13,37,11.40
2014,03,24,13,38,11.40
2014,03,24,13,39,11.40
2014,03,24,13,40,11.50
2014,03,24,13,41,11.50
2014,03,24,13,42,11.60
2014,03,24,13,43,11.60
2014,03,24,13,44,11.70
2014,03,24,13,45,11.70
2014,03,24,13,46,11.70
2014,03,24,13,47,11.70
2014,03,24,13,48,11.70
2014,03,24,13,49,11.70
2014,03,24,13,50,11.80
2014,03,24,13,51,11.80
2014,03,24,13,52,11.80
2014,03,24,13,53,11.80
2014,03,24,13,54,11.90
2014,03,24,13,55,12.00
2014,03,24,13,56,12.00
2014,03,24,13,57,12.00
2014,03,24,13,58,12.00
2014,03,24,13,59,12.00
2014,03,24,14,00,12.10
2014,03,24,14,01,12.00
2014,03,24,14,02,12.00
2014,03,24,14,03,11.90
2014,03,24,14,04,11.80
2014,03,24,14,05,11.80
2014,03,24,14,06,11.70
2014,03,24,14,07,11.70
2014,03,24,14,08,11.70
2014,03,24,14,09,11.70
2014,03,24,14,10,11.70
2014,03,24,14,11,11.70
2014,03,24,14,12,11.70
2014,03,24,14,13,11.70
2014,03,24,14,14,11.70
2014,03,24,14,15,11.70
2014,03,24,14,16,11.70
2014,03,24,14,17,11.70
2014,03,24,14,18,11.70
2014,03,24,14,19,11.70
2014,03,24,14,20,11.70
2014,03,24,14,21,11.70
2014,03,24,14,22,11.80
2014,03,24,14,23,11.80
2014,03,24,14,24,11.80
2014,03,24,14,25,11.80
2014,03,24,14,26,11.80
2014,03,24,14,27,11.80
2014,03,24,14,28,11.80
2014,03,24,14,29,11.70
2014,03,24,14,30,11.70
2014,03,24,14,31,11.70
2014,03,24,14,32,11.70
2014,03,24,14,33,11.70
2014,03,24,14,34,11.70
2014,03,24,14,35,11.70
2014,03,24,14,36,11.70
2014,03,24,14,37,11.80
2014,03,24,14,38,11.80
2014,03,24,14,39,11.80
2014,03,24,14,40,11.80
2014,03,24,14,41,11.90
2014,03,24,14,42,11.90
2014,03,24,14,43,11.90
2014,03,24,14,44,11.90
2014,03,24,14,45,11.90
2014,03,24,14,46,11.90
2014,03,24,14,47,11.90
2014,03,24,14,48,11.90
2014,03,24,14,49,12.00
2014,03,24,14,50,12.00
2014,03,24,14,51,12.00
2014,03,24,14,52,12.10
2014,03,24,14,53,12.10
2014,03,24,14,54,12.10
2014,03,24,14,55,12.10
2014,03,24,14,56,12.10
2014,03,24,14,57,12.10
2014,03,24,14,58,12.10
2014,03,24,14,59,12.10
2014,03,24,15,00,12.10
2014,03,24,15,01,12.10
2014,03,24,15,02,12.10
2014,03,24,15,03,12.10
2014,03,24,15,04,12.10
2014,03,24,15,05,12.20
2014,03,24,15,06,12.20
2014,03,24,15,07,12.20
2014,03,24,15,08,12.20
2014,03,24,15,09,12.30
2014,03,24,15,10,12.30
2014,03,24,15,11,12.30
2014,03,24,15,12,12.40
2014,03,24,15,13,12.40
2014,03,24,15,14,12.40
2014,03,24,15,15,12.40
2014,03,24,15,16,12.30
2014,03,24,15,17,12.30
2014,03,24,15,18,12.30
2014,03,24,15,19,12.40
2014,03,24,15,20,12.40
2014,03,24,15,21,12.40
2014,03,24,15,22,12.40
2014,03,24,15,23,12.40
2014,03,24,15,24,12.40
2014,03,24,15,25,12.30
2014,03,24,15,26,12.30
2014,03,24,15,27,12.30
2014,03,24,15,28,12.30
2014,03,24,15,29,12.30
2014,03,24,15,30,12.40
2014,03,24,15,31,12.40
2014,03,24,15,32,12.50
2014,03,24,15,33,12.50
2014,03,24,15,34,12.50
2014,03,24,15,35,12.50
2014,03,24,15,36,12.60
2014,03,24,15,37,12.60
2014,03,24,15,38,12.60
2014,03,24,15,39,12.70
2014,03,24,15,40,12.70
2014,03,24,15,41,12.80
2014,03,24,15,42,12.80
2014,03,24,15,43,12.90
2014,03,24,15,44,12.90
2014,03,24,15,45,12.80
2014,03,24,15,46,12.80
2014,03,24,15,47,12.70
2014,03,24,15,48,12.70
2014,03,24,15,49,12.60
2014,03,24,15,50,12.60
2014,03,24,15,51,12.50
2014,03,24,15,52,12.50
2014,03,24,15,53,12.40
2014,03,24,15,54,12.40
2014,03,24,15,55,12.40
2014,03,24,15,56,12.30
2014,03,24,15,57,12.30
2014,03,24,15,58,12.30
2014,03,24,15,59,12.20
2014,03,24,16,00,12.20
2014,03,24,16,01,12.10
2014,03,24,16,02,12.10
2014,03,24,16,03,12.20
2014,03,24,16,04,12.20
2014,03,24,16,05,12.20
2014,03,24,16,06,12.20
2014,03,24,16,07,12.20
2014,03,24,16,08,12.20
2014,03,24,16,09,12.20
2014,03,24,16,10,12.20
2014,03,24,16,11,12.30
2014,03,24,16,12,12.30
2014,03,24,16,13,12.30
2014,03,24,16,14,12.30
2014,03,24,16,15,12.30
2014,03,24,16,16,12.40
2014,03,24,16,17,12.40
2014,03,24,16,18,12.50
2014,03,24,16,19,12.50
2014,03,24,16,20,12.60
2014,03,24,16,21,12.70
2014,03,24,16,22,12.80
2014,03,24,16,23,12.80
2014,03,24,16,24,12.80
2014,03,24,16,25,12.80
2014,03,24,16,26,12.70
2014,03,24,16,27,12.70
2014,03,24,16,28,12.70
2014,03,24,16,29,12.70
2014,03,24,16,30,12.70
2014,03,24,16,31,12.70
2014,03,24,16,32,12.70
2014,03,24,16,33,12.70
2014,03,24,16,34,12.70
2014,03,24,16,35,12.80
2014,03,24,16,36,12.80
2014,03,24,16,37,12.80
2014,03,24,16,38,12.80
2014,03,24,16,39,12.90
2014,03,24,16,40,12.90
2014,03,24,16,41,12.90
2014,03,24,16,42,12.90
2014,03,24,16,43,12.90
2014,03,24,16,44,12.90
2014,03,24,16,45,13.00
2014,03,24,16,46,13.00
2014,03,24,16,47,13.00
2014,03,24,16,48,13.00
2014,03,24,16,49,13.00
2014,03,24,16,50,13.00
2014,03,24,16,51,13.00
2014,03,24,16,52,13.00
2014,03,24,16,53,12.90
2014,03,24,16,54,12.90
2014,03,24,16,55,12.90
2014,03,24,16,56,12.90
2014,03,24,16,57,12.90
2014,03,24,16,58,12.80
2014,03,24,16,59,12.80
2014,03,24,17,00,12.80
2014,03,24,17,01,12.80
2014,03,24,17,02,12.80
2014,03,24,17,03,12.80
2014,03,24,17,04,12.80
2014,03,24,17,05,12.80
2014,03,24,17,06,12.90
2014,03,24,17,07,12.90
2014,03,24,17,08,13.00
2014,03,24,17,09,13.10
2014,03,24,17,10,13.10
2014,03,24,17,11,13.20
2014,03,24,17,12,13.20
2014,03,24,17,13,13.20
2014,03,24,17,14,13.20
2014,03,24,17,15,13.20
2014,03,24,17,16,13.30
2014,03,24,17,17,13.30
2014,03,24,17,18,13.30
2014,03,24,17,19,13.20
2014,03,24,17,20,13.20
2014,03,24,17,21,13.20
2014,03,24,17,22,13.20
2014,03,24,17,23,13.20
2014,03,24,17,24,13.20
2014,03,24,17,25,13.20
2014,03,24,17,26,13.20
2014,03,24,17,27,13.30
2014,03,24,17,28,13.30
2014,03,24,17,29,13.30
2014,03,24,17,30,13.40
2014,03,24,17,31,13.40
2014,03,24,17,32,13.50
2014,03,24,17,33,13.50
2014,03,24,17,34,13.60
2014,03,24,17,35,13.60
2014,03,24,17,36,13.60
2014,03,24,17,37,13.60
2014,03,24,17,38,13.70
2014,03,24,17,39,13.70
2014,03,24,17,40,13.70
2014,03,24,17,41,13.80
2014,03,24,17,42,13.80
2014,03,24,17,43,13.80
2014,03,24,17,44,13.80
2014,03,24,17,45,13.80
2014,03,24,17,46,13.80
2014,03,24,17,47,13.80
2014,03,24,17,48,13.80
2014,03,24,17,49,13.80
2014,03,24,17,50,13.80